Guadalupe Pass, TX

4:55 AM MDT on October 22, 2017 (GMT -0600)
Guadalupe Pass

Weather History for KGDP - June, 2014

Change the Weather History Date:

Tuesday, June 3, 2014

  Actual Average Record
Temperature  
Mean Temperature 83 °F -  
Max Temperature 102 °F 84 °F 102 °F (2014)
Min Temperature 66 °F 61 °F 57 °F (2007)
Cooling Degree Days 18    
Growing Degree Days 33 (Base 50)    
Moisture  
Dew Point 49 °F    
Average Humidity 36    
Maximum Humidity 73    
Minimum Humidity 11    
Precipitation  
Precipitation 0.00 in - - ()
Sea Level Pressure  
Sea Level Pressure 29.82 in    
Wind  
Wind Speed 19 mph (East)    
Max Wind Speed 36 mph    
Max Gust Speed 39 mph    
Visibility 9 miles    
Events      
Averages and records for this station are not official NWS values.
T = Trace of Precipitation, MM = Missing Value Source: NWS Daily Summary

Daily Weather History Graph

Daily Weather History Graph

Search for Another Location

Airport or City:

Trip Planner

Search our weather history database for the weather conditions in past years. The results will help you decide how hot, cold, wet, or windy it might be!

Date:

Astronomy

Jun. 03, 2014 Rise Set
Actual Time 5:53 AM MDT 8:01 PM MDT
Civil Twilight 5:26 AM MDT 8:29 PM MDT
Nautical Twilight 4:52 AM MDT 9:02 PM MDT
Astronomical Twilight 4:15 AM MDT 9:39 PM MDT
Moon 11:06 AM MDT (6/3) No Moon Set
Length of Visible Light 15h 03m
Length of Day
14h 07m
Waxing Crescent, 30% of the Moon is Illuminated
Jun 3
Waxing Crescent
Jun 5
First Quarter
Jun 12
Full
Jun 19
Last Quarter
Jun 27
New

Hourly Weather History & Observations

Time (MDT) Temp. Heat Index Dew Point Humidity Pressure Visibility Wind Dir Wind Speed Gust Speed Precip Events Conditions
12:51 AM 75.0 °F - 48.0 °F 38% 29.78 in 9.0 mi NE 29.9 mph - N/A   Clear
1:51 AM 72.0 °F - 55.0 °F 55% 29.76 in 9.0 mi NE 35.7 mph - N/A   Clear
2:51 AM 69.1 °F - 55.9 °F 63% 29.77 in 9.0 mi NE 32.2 mph - N/A   Clear
3:51 AM 66.9 °F - 57.0 °F 70% 29.79 in 9.0 mi ENE 25.3 mph - N/A   Clear
4:51 AM 66.0 °F - 57.0 °F 73% 29.81 in 9.0 mi ENE 15.0 mph - N/A   Clear
5:51 AM 68.0 °F - 57.0 °F 68% 29.82 in 8.0 mi NE 4.6 mph - N/A   Clear
6:51 AM 70.0 °F - 57.0 °F 63% 29.84 in 8.0 mi ENE 10.4 mph - N/A   Clear
7:51 AM 71.1 °F - 57.0 °F 61% 29.86 in 8.0 mi NE 8.1 mph - N/A   Clear
8:51 AM 79.0 °F - 55.9 °F 45% 29.86 in 8.0 mi East 6.9 mph - N/A   Clear
9:51 AM 84.9 °F 83.3 °F 54.0 °F 34% 29.85 in 9.0 mi South 5.8 mph - N/A   Clear
10:51 AM 89.1 °F - 50.0 °F 26% 29.85 in 9.0 mi SSE 4.6 mph - N/A   Clear
11:51 AM 90.0 °F 87.9 °F 55.0 °F 30% 29.84 in 9.0 mi East 9.2 mph - N/A   Clear
12:51 PM 93.9 °F - 41.0 °F 16% 29.82 in 9.0 mi SSW 11.5 mph - N/A   Clear
1:51 PM 95.0 °F - 37.0 °F 13% 29.80 in 9.0 mi Variable 3.5 mph 20.7 mph N/A   Clear
2:22 PM 100.0 °F - 37.9 °F 12% 30.09 in 9.0 mi SW 15.0 mph - N/A   Clear
2:51 PM 99.0 °F - 37.9 °F 12% 29.78 in 9.0 mi WSW 10.4 mph 21.9 mph N/A   Clear
3:36 PM 100.0 °F - 36.0 °F 11% 30.07 in 9.0 mi WSW 12.7 mph 20.7 mph N/A   Clear
3:51 PM 96.1 °F - 36.0 °F 12% 29.77 in 9.0 mi Variable 3.5 mph - N/A   Clear
4:51 PM 95.0 °F - 45.0 °F 18% 29.76 in 9.0 mi East 13.8 mph 21.9 mph N/A   Clear
5:44 PM 93.9 °F - 43.0 °F 17% 30.03 in 9.0 mi East 17.3 mph 26.5 mph N/A   Clear
5:51 PM 93.9 °F - 43.0 °F 17% 29.74 in 9.0 mi East 16.1 mph 24.2 mph N/A   Partly Cloudy
6:51 PM 91.0 °F - 39.0 °F 16% 29.74 in 9.0 mi East 20.7 mph - N/A   Clear
7:51 PM 87.1 °F - 51.1 °F 29% 29.75 in 8.0 mi ENE 28.8 mph - N/A   Clear
8:51 PM 82.9 °F 82.0 °F 55.0 °F 38% 29.76 in 9.0 mi ENE 27.6 mph 39.1 mph N/A   Clear
9:51 PM 79.0 °F - 54.0 °F 42% 29.76 in 9.0 mi NE 28.8 mph - N/A   Clear
10:51 PM 77.0 °F - 53.1 °F 43% 29.77 in 9.0 mi ENE 18.4 mph - N/A   Clear
11:51 PM 77.0 °F - 52.0 °F 42% 29.77 in 10.0 mi ENE 9.2 mph - N/A   Clear